| time (UTC) | temp C | wind direction | speed KPH | gust KPH | rain 1hr cm | rain 24hr cm | rain mn cm | humidity % | barometer mb |
| 20260506121003 | 17 | 178 | 12.9 | 29.0 | 0.00 | 0.00 | 0.00 | 66 | 1010.2 |
| 20260506120003 | 18 | 185 | 11.3 | 27.4 | 0.00 | 0.00 | 0.00 | 65 | 1010.4 |
| 20260506115004 | 17 | 179 | 12.9 | 25.7 | 0.00 | 0.00 | 0.00 | 65 | 1010.4 |
| 20260506114003 | 17 | 183 | 11.3 | 27.4 | 0.00 | 0.00 | 0.00 | 66 | 1010.5 |
| 20260506113106 | 18 | 192 | 11.3 | 20.9 | 0.00 | 0.00 | 0.00 | 66 | 1010.5 |
| 20260506112106 | 18 | 178 | 11.3 | 27.4 | 0.00 | 0.00 | 0.00 | 65 | 1010.5 |
| 20260506111107 | 18 | 182 | 14.5 | 22.5 | 0.00 | 16.59 | 0.00 | 65 | 1010.5 |
| 20260506110004 | 18 | 169 | 14.5 | 27.4 | 0.00 | 16.59 | 0.00 | 65 | 1010.7 |
| 20260506105003 | 19 | 177 | 12.9 | 33.8 | 0.00 | 16.59 | 0.00 | 63 | 1010.8 |
| 20260506104106 | 18 | 210 | 11.3 | 22.5 | 0.00 | 16.59 | 0.00 | 67 | 1010.8 |
| 20260506103106 | 18 | 188 | 9.7 | 17.7 | 0.00 | 16.59 | 0.00 | 68 | 1010.8 |
| 20260506102004 | 18 | 196 | 9.7 | 25.7 | 0.00 | 16.59 | 0.00 | 66 | 1010.8 |
| 20260506101107 | 19 | 216 | 9.7 | 17.7 | 0.00 | 16.59 | 0.00 | 68 | 1010.9 |
| 20260506100106 | 18 | 185 | 9.7 | 35.4 | 0.00 | 16.59 | 0.00 | 68 | 1010.9 |
| 20260506095003 | 18 | 196 | 8.0 | 16.1 | 0.00 | 16.59 | 0.00 | 68 | 1011.0 |
| 20260506094106 | 18 | 193 | 11.3 | 27.4 | 0.00 | 16.59 | 0.00 | 68 | 1010.9 |
| 20260506093107 | 19 | 181 | 8.0 | 25.7 | 0.00 | 16.59 | 0.00 | 64 | 1010.8 |
| 20260506092106 | 20 | 243 | 6.4 | 17.7 | 0.00 | 16.59 | 0.00 | 66 | 1010.8 |
| 20260506091003 | 19 | 197 | 6.4 | 16.1 | 0.00 | 16.59 | 0.00 | 64 | 1010.8 |
| 20260506090003 | 19 | 252 | 4.8 | 16.1 | 0.00 | 16.59 | 0.00 | 66 | 1010.7 |
| 20260506085004 | 18 | 228 | 4.8 | 11.3 | 0.00 | 16.59 | 0.00 | 67 | 1010.6 |
| 20260506084003 | 17 | 221 | 6.4 | 12.9 | 0.00 | 16.59 | 0.00 | 72 | 1010.7 |
| 20260506083106 | 17 | 243 | 6.4 | 17.7 | 0.00 | 16.59 | 0.00 | 70 | 1010.6 |
| 20260506082003 | 17 | 307 | 3.2 | 12.9 | 0.00 | 16.59 | 0.00 | 72 | 1010.8 |
| 20260506081004 | 17 | 235 | 3.2 | 14.5 | 0.00 | 16.59 | 0.00 | 73 | 1011.0 |
| 20260506080107 | 16 | 188 | 4.8 | 11.3 | 0.00 | 16.59 | 0.00 | 74 | 1011.0 |
| 20260506073106 | 16 | 184 | 8.0 | 24.1 | 0.00 | 16.59 | 0.00 | 72 | 1011.0 |
| 20260506072107 | 17 | 191 | 6.4 | 16.1 | 0.00 | 16.59 | 0.00 | 71 | 1010.9 |
| 20260506071107 | 17 | 203 | 6.4 | 19.3 | 0.00 | 16.59 | 0.00 | 71 | 1010.9 |
| 20260506070106 | 17 | 222 | 6.4 | 9.7 | 0.00 | 16.59 | 0.00 | 70 | 1010.8 |
| 20260506062106 | 16 | 296 | 1.6 | 6.4 | 0.00 | 16.59 | 0.00 | 75 | 1010.7 |
| 20260506061003 | 15 | 260 | 1.6 | 6.4 | 0.00 | 16.59 | 0.00 | 77 | 1010.7 |
| 20260506051003 | 15 | 211 | 4.8 | 16.1 | 0.00 | 16.59 | 0.00 | 78 | 1010.6 |
| 20260506050106 | 15 | 224 | 1.6 | 11.3 | 0.00 | 0.00 | 0.00 | 79 | 1010.5 |
| 20260506045107 | 14 | 253 | 1.6 | 11.3 | 0.00 | 0.00 | 0.00 | 80 | 1010.4 |
| 20260506044004 | 14 | 251 | 1.6 | 9.7 | 0.00 | 0.00 | 0.00 | 81 | 1010.4 |
| 20260506043107 | 14 | 282 | 0.0 | 4.8 | 0.00 | 0.00 | 0.00 | 81 | 1010.4 |
| 20260506042003 | 14 | 283 | 0.0 | 9.7 | 0.00 | 0.00 | 0.00 | 82 | 1010.5 |
| 20260506041003 | 13 | 282 | 0.0 | 8.0 | 0.00 | 0.00 | 0.00 | 82 | 1010.4 |
| 20260506040107 | 13 | 289 | 0.0 | 8.0 | 0.00 | 0.00 | 0.00 | 82 | 1010.5 |
| 20260506035107 | 13 | 271 | 1.6 | 12.9 | 0.00 | 0.00 | 0.00 | 81 | 1010.4 |
| 20260506034003 | 14 | 237 | 1.6 | 8.0 | 0.00 | 0.00 | 0.00 | 81 | 1010.3 |
| 20260506033106 | 14 | 204 | 1.6 | 8.0 | 0.00 | 0.00 | 0.00 | 81 | 1010.3 |
| 20260506032004 | 14 | 195 | 3.2 | 11.3 | 0.00 | 0.00 | 0.00 | 81 | 1010.4 |
| 20260506031107 | 14 | 229 | 3.2 | 11.3 | 0.00 | 0.00 | 0.00 | 81 | 1010.4 |
| 20260506030107 | 14 | 210 | 6.4 | 16.1 | 0.00 | 0.00 | 0.00 | 81 | 1010.4 |
| 20260506025106 | 13 | 204 | 8.0 | 16.1 | 0.00 | 0.00 | 0.00 | 81 | 1010.4 |
| 20260506024106 | 13 | 206 | 4.8 | 16.1 | 0.00 | 0.00 | 0.00 | 82 | 1010.6 |
| 20260506023004 | 13 | 218 | 1.6 | 8.0 | 0.00 | 0.00 | 0.00 | 83 | 1010.8 |
| 20260506022003 | 13 | 271 | 0.0 | 3.2 | 0.00 | 0.00 | 0.00 | 83 | 1010.8 |
| 20260506021106 | 13 | 272 | 0.0 | 1.6 | 0.00 | 0.00 | 0.00 | 83 | 1010.7 |
| 20260506020004 | 13 | 0 | 0.0 | 0.0 | 0.00 | 0.00 | 0.00 | 83 | 1010.8 |
| 20260506015107 | 13 | 269 | 0.0 | 3.2 | 0.00 | 0.00 | 0.00 | 82 | 1010.8 |
| 20260506014003 | 13 | 259 | 0.0 | 1.6 | 0.00 | 0.00 | 0.00 | 82 | 1010.6 |
| 20260506013106 | 13 | 0 | 0.0 | 0.0 | 0.00 | 0.00 | 0.00 | 81 | 1010.6 |
| 20260506012004 | 13 | 258 | 0.0 | 1.6 | 0.00 | 0.00 | 0.00 | 81 | 1010.6 |
| 20260506011107 | 13 | 258 | 0.0 | 3.2 | 0.00 | 0.00 | 0.00 | 80 | 1010.6 |
| 20260506010003 | 13 | 258 | 0.0 | 1.6 | 0.00 | 0.00 | 0.00 | 80 | 1010.5 |
| 20260506005106 | 14 | 269 | 1.6 | 8.0 | 0.00 | 0.00 | 0.00 | 79 | 1010.6 |
| 20260506004004 | 14 | 240 | 3.2 | 11.3 | 0.00 | 0.00 | 0.00 | 79 | 1010.6 |
| 20260506003107 | 14 | 266 | 6.4 | 14.5 | 0.00 | 0.00 | 0.00 | 79 | 1010.4 |
| 20260506002106 | 14 | 258 | 9.7 | 17.7 | 0.00 | 0.00 | 0.00 | 79 | 1010.3 |
| 20260506001003 | 14 | 210 | 12.9 | 29.0 | 0.00 | 0.00 | 0.00 | 79 | 1010.1 |
| 20260506000004 | 14 | 216 | 9.7 | 24.1 | 0.00 | 0.00 | 0.00 | 79 | 1010.1 |
| 20260505235107 | 14 | 228 | 9.7 | 19.3 | 0.00 | 0.00 | 0.00 | 79 | 1010.2 |
| 20260505234106 | 14 | 220 | 8.0 | 22.5 | 0.00 | 0.00 | 0.00 | 79 | 1010.2 |
| 20260505233003 | 14 | 240 | 9.7 | 25.7 | 0.00 | 0.00 | 0.00 | 78 | 1010.1 |
| 20260505232004 | 14 | 218 | 9.7 | 27.4 | 0.00 | 0.00 | 0.00 | 79 | 1010.2 |
| 20260505231107 | 14 | 249 | 12.9 | 22.5 | 0.00 | 0.00 | 0.00 | 79 | 1010.3 |
| 20260505230107 | 14 | 261 | 14.5 | 30.6 | 0.00 | 0.00 | 0.00 | 79 | 1010.3 |
| 20260505225003 | 14 | 262 | 14.5 | 35.4 | 0.00 | 0.00 | 0.00 | 78 | 1009.9 |
| 20260505224003 | 14 | 239 | 16.1 | 30.6 | 0.00 | 0.00 | 0.00 | 78 | 1009.9 |
| 20260505223004 | 14 | 236 | 14.5 | 33.8 | 0.00 | 0.00 | 0.00 | 77 | 1009.9 |
| 20260505222004 | 14 | 215 | 16.1 | 32.2 | 0.00 | 0.00 | 0.00 | 78 | 1009.9 |
| 20260505221003 | 14 | 209 | 17.7 | 40.2 | 0.00 | 0.00 | 0.00 | 77 | 1009.7 |
| 20260505220151 | 15 | 210 | 12.9 | 37.0 | 0.00 | 0.00 | 0.00 | 77 | 1009.8 |
| 20260505215003 | 15 | 220 | 11.3 | 30.6 | 0.00 | 0.00 | 0.00 | 77 | 1010.3 |
| 20260505214107 | 15 | 207 | 9.7 | 22.5 | 0.00 | 0.00 | 0.00 | 78 | 1010.5 |
| 20260505213004 | 15 | 220 | 6.4 | 33.8 | 0.00 | 0.00 | 0.00 | 78 | 1010.8 |
| 20260505212107 | 14 | 254 | 6.4 | 16.1 | 0.00 | 0.00 | 0.00 | 79 | 1011.1 |
| 20260505211106 | 14 | 245 | 6.4 | 17.7 | 0.00 | 0.00 | 0.00 | 80 | 1011.1 |
| 20260505210106 | 14 | 246 | 4.8 | 14.5 | 0.00 | 0.00 | 0.00 | 80 | 1011.1 |
| 20260505205106 | 14 | 254 | 4.8 | 11.3 | 0.00 | 0.00 | 0.00 | 80 | 1011.3 |
| 20260505204004 | 14 | 255 | 3.2 | 12.9 | 0.00 | 0.00 | 0.00 | 80 | 1011.3 |
| 20260505203003 | 14 | 281 | 4.8 | 17.7 | 0.00 | 0.00 | 0.00 | 80 | 1011.3 |
| 20260505202003 | 14 | 238 | 4.8 | 12.9 | 0.00 | 0.00 | 0.00 | 79 | 1011.3 |
| 20260505201106 | 15 | 265 | 4.8 | 16.1 | 0.00 | 0.00 | 0.00 | 79 | 1011.3 |
| 20260505200106 | 15 | 260 | 4.8 | 12.9 | 0.00 | 0.00 | 0.00 | 78 | 1011.3 |
| 20260505195107 | 15 | 265 | 4.8 | 16.1 | 0.00 | 0.00 | 0.00 | 77 | 1011.4 |
| 20260505194004 | 15 | 218 | 4.8 | 11.3 | 0.00 | 0.00 | 0.00 | 76 | 1011.5 |
| 20260505193003 | 15 | 251 | 4.8 | 12.9 | 0.00 | 0.00 | 0.00 | 76 | 1011.4 |
| 20260505192106 | 15 | 232 | 6.4 | 17.7 | 0.00 | 0.00 | 0.00 | 76 | 1011.3 |
| 20260505191003 | 15 | 259 | 4.8 | 16.1 | 0.00 | 0.00 | 0.00 | 76 | 1011.3 |
| 20260505190003 | 15 | 255 | 3.2 | 16.1 | 0.00 | 0.00 | 0.00 | 75 | 1011.2 |
| 20260505185004 | 15 | 244 | 3.2 | 11.3 | 0.00 | 0.00 | 0.00 | 74 | 1011.1 |
| 20260505184107 | 15 | 273 | 4.8 | 12.9 | 0.00 | 0.00 | 0.00 | 73 | 1011.0 |
| 20260505183107 | 15 | 242 | 6.4 | 14.5 | 0.00 | 0.00 | 0.00 | 73 | 1011.0 |
| 20260505182003 | 15 | 255 | 6.4 | 12.9 | 0.00 | 0.00 | 0.00 | 72 | 1011.1 |
| 20260505181003 | 15 | 259 | 6.4 | 14.5 | 0.00 | 0.00 | 0.00 | 71 | 1011.0 |
| 20260505180106 | 15 | 258 | 6.4 | 19.3 | 0.00 | 0.00 | 0.00 | 70 | 1011.0 |
| 20260505175003 | 15 | 257 | 6.4 | 17.7 | 0.00 | 0.00 | 0.00 | 70 | 1011.1 |
| 20260505174004 | 15 | 261 | 4.8 | 22.5 | 0.00 | 0.00 | 0.00 | 69 | 1011.2 |
| 20260505173107 | 16 | 261 | 4.8 | 11.3 | 0.00 | 0.00 | 0.00 | 68 | 1011.2 |
| 20260505172107 | 16 | 213 | 4.8 | 14.5 | 0.00 | 0.00 | 0.00 | 67 | 1011.2 |
| 20260505171106 | 16 | 252 | 4.8 | 14.5 | 0.00 | 0.00 | 0.00 | 66 | 1011.2 |
| 20260505170106 | 16 | 252 | 4.8 | 11.3 | 0.00 | 0.00 | 0.00 | 66 | 1011.1 |
| 20260505165107 | 16 | 238 | 6.4 | 14.5 | 0.00 | 0.00 | 0.00 | 65 | 1011.3 |
| 20260505164107 | 16 | 261 | 6.4 | 19.3 | 0.00 | 0.00 | 0.00 | 64 | 1011.2 |
| 20260505163004 | 17 | 219 | 6.4 | 11.3 | 0.00 | 0.00 | 0.00 | 63 | 1011.2 |
| 20260505162107 | 17 | 263 | 6.4 | 19.3 | 0.00 | 0.00 | 0.00 | 63 | 1011.2 |
| 20260505161106 | 17 | 244 | 6.4 | 16.1 | 0.00 | 0.00 | 0.00 | 62 | 1011.3 |
| 20260505160106 | 17 | 245 | 6.4 | 17.7 | 0.00 | 0.00 | 0.00 | 62 | 1011.5 |
| 20260505153004 | 18 | 242 | 8.0 | 25.7 | 0.00 | 0.00 | 0.00 | 59 | 1011.3 |
| 20260505152107 | 18 | 245 | 8.0 | 19.3 | 0.00 | 0.00 | 0.00 | 59 | 1011.3 |
| 20260505151003 | 18 | 248 | 6.4 | 17.7 | 0.00 | 0.00 | 0.00 | 59 | 1011.3 |
| 20260505140106 | 20 | 208 | 9.7 | 27.4 | 0.00 | 0.00 | 0.00 | 53 | 1011.6 |
| 20260505130107 | 20 | 246 | 9.7 | 27.4 | 0.00 | 0.00 | 0.00 | 52 | 1011.9 |
| 20260505125003 | 20 | 252 | 8.0 | 17.7 | 0.00 | 0.00 | 0.00 | 54 | 1012.2 |
| 20260505124003 | 20 | 218 | 6.4 | 19.3 | 0.00 | 0.00 | 16.59 | 53 | 1012.3 |
| 20260505123106 | 20 | 222 | 9.7 | 24.1 | 0.00 | 0.00 | 16.59 | 54 | 1012.4 |
| 20260505122107 | 20 | 247 | 8.0 | 17.7 | 0.00 | 0.00 | 16.59 | 54 | 1012.4 |